Terminal Aerodrome Forecast
Issued by NWS

Home | Current Version | Previous Version | Text Only | Print | Product List | Glossary On
Versions: 1 2 3 4 5 6 7 8 9 10 11 12 13 14 15 16 17 18 19 20 21 22 23 24 25 26 27 28 29 30 31 32 33 34 35 36 37 38 39 40 41 42 43 44 45 46 47 48
000
FTUS46 KEKA 222339
TAFACV
TAF
KACV 222339Z 2300/2324 25006KT P6SM SCT025 SCT200
     FM230300 20004KT P6SM BKN025 BKN150
     FM230600 14004KT 6SM BR SCT015 OVC025
     FM231200 14005KT 5SM BR VCSH BKN015 OVC025
     FM232000 19007KT P6SM OVC020=

USA.gov is the U.S. government's official web portal to all federal, state and local government web resources and services.